www.pogodaiklimat.ru

Погода и климат >> Архив погоды >> Россия >> Краснодарский край >> Тамань


ПОГОДА в Тамани

  • Прогноз погоды в Тамани
  • Монитор погоды в Тамани

АРХИВ ПОГОДЫ в Тамани

Время (UTC), дата Ветер
(напр.,м/с)
 
Видим.   Явления Облачность Т
(С)
Тd
(С)
f
(%)
Тe
(С)
Тes
(С)
Комфортность P
(гПа)
Po
(гПа)
Тmin
(С)
Tmax
(С)
R
(мм)
R24
(мм)
S
(см)
03 12.02 Ю 1 10 км 4/4 1000 м
[Sc]
+8.2 +5.2 81 +7 +7 1015.3 1013.3 +6.7
06 12.02 Ю 3 20 км 10/3 1000 м
[Cu hum Ac As]
+9.0 +6.4 84 +7 +7 1014.6 1012.6
09 12.02 Ю 5
{14}
20 км 10/3 600 м
[Cu hum Ac trans Cc]
+11.1 +7.1 76 +8 +10 1014.5 1012.6
12 12.02 Ю 4-10
{11}
20 км 10/3 600 м
[Cu med, cong Ac trans Cs]
+10.6 +7.2 79 +8 +9 1013.5 1011.5
15 12.02 ЮВ 3
{10}
10 км 10/0
[Ac lent Cs]
+9.2 +7.2 87 +7 +7 1013.8 1011.8 +11.4
18 12.02 штиль 0 10 км 8/8 1000 м
[Sc]
+8.8 +6.9 88 +8 +8 1015.1 1013.2
21 12.02 Ю 4 10 км 9/9 1000 м
[Sc]
+9.5 +7.0 84 +7 +7 1014.6 1012.6
00 13.02 Ю 1 10 км 6/6 1000 м
[Sc]
+9.1 +7.0 87 +8 +8 1016.4 1014.4
03 13.02 СВ 1 10 км 6/6 1000 м
[Sc]
+7.2 +5.6 90 +6 +6 1017.9 1016.0 +7.2
06 13.02 штиль 0 20 км 10/10 600 м
[Sc]
+5.1 +2.7 84 +4 +4 1021.5 1019.5 +5.1
09 13.02 штиль 0 20 км 10/10 600 м
[Sc]
+5.1 +1.7 79 +4 +4 1023.0 1021.0
12 13.02 С 4 20 км 10/10 600 м
[Cu med, cong]
+4.2 +1.0 80 -0 -0 1024.1 1022.1
15 13.02 штиль 0 10 км 10/3 600 м
[Cu med, cong Cs]
+3.0 +0.2 82 +2 +2 1024.9 1022.9 +7.2
18 13.02 С 4 10 км 9/9 1000 м
[Sc]
+3.7 -0.1 76 -1 -1 1026.2 1024.2
21 13.02 СЗ 4 10 км 10/10 600 м
[Sc]
+3.4 +0.1 79 -1 -1 1026.0 1024.0
00 14.02 С 1 10 км 10/10 600 м
[Sc]
+3.0 +0.7 85 +1 +1 1026.3 1024.2
03 14.02 СВ 2 10 км 6/0
[Ac trans]
+2.0 -1.0 80 -1 -1 1026.1 1024.1 +2.0
06 14.02 СВ 2 20 км ясно +1.6 -2.2 76 -2 0 1026.8 1024.8 +1.4
09 14.02 СВ 2 20 км ясно +2.6 -3.0 67 -0 +6 1026.0 1023.9
12 14.02 СВ 3 20 км ясно +2.7 -1.9 72 -1 +2 1024.0 1021.9
15 14.02 СВ 2 10 км 10/0
[Cs]
+2.1 -2.2 73 -1 -1 1023.4 1021.3 +2.7
18 14.02 СВ 3 10 км 10/10 600 м
[St]
+3.1 -1.1 74 -1 -1 1023.2 1021.2
21 14.02 СВ 6-11
{11}
10 км 10/10 600 м
[St]
+2.8 -2.8 67 -3 -3 1022.5 1020.5
00 15.02 СВ 6-10
{12}
10 км 10/10 600 м
[St]
+1.8 -3.1 70 -4 -4 1023.7 1021.7
03 15.02 СВ 7-13
{13}
10 км 10/10 600 м
[St]
+1.1 -3.3 72 -5 -5 1023.2 1021.1 +1.0
06 15.02 СВ 7-12
{14}
20 км 10/0
[As op]
+0.9 -2.5 78 -6 -6 1024.5 1022.4 +0.7
09 15.02 СВ 6-10
{13}
20 км 3/0
[Cs]
+2.1 -1.8 75 -4 -1 1024.1 1022.1
12 15.02 СВ 3
{11}
20 км 3/0
[Cs]
+2.9 -1.4 73 -1 +2 1023.7 1021.7
15 15.02 С 2
{10}
н/о ясно +2.0 -2.0 75 -1 -1 1024.1 1022.1 +3.3
18 15.02 С 2 10 км 4/0
[Ci fib]
+1.8 -1.8 77 -1 -1 1024.6 1022.6
21 15.02 С 1 10 км 3/0
[Ci fib]
+1.2 -1.9 80 -1 -1 1024.1 1022.1
00 16.02 С 1 10 км 3/0
[Ci fib]
+0.9 -2.0 81 -1 -1 1023.9 1021.9
03 16.02 С 2 10 км 3/0
[Ci fib]
+1.1 -2.3 78 -2 -2 1023.5 1021.5 +0.8
06 16.02 С 2 20 км 8/6 600 м
[Sc Ci fib]
+1.3 -1.3 83 -2 -1 1024.6 1022.6
09 16.02 СЗ 2 20 км 10/10 600 м
[St]
+2.1 -1.1 79 -1 -1 1024.7 1022.7
12 16.02 З 3 10 км 10/10 600 м
[Sc]
+2.3 -0.7 81 -2 -2 1023.9 1021.8
15 16.02 З 3 10 км 10/10 600 м
[Sc]
+3.0 +0.1 81 -1 -1 1024.1 1022.0 +3.0
18 16.02 З 4 10 км 10/0
[As op]
+3.3 +0.3 81 -1 -1 1024.1 1022.1
21 16.02 СЗ 3 10 км 10/0
[As op]
+3.4 +0.6 82 -0 -0 1024.3 1022.3
00 17.02 З 4 10 км 10/0
[As op]
+3.4 +0.9 84 -1 -1 1023.7 1021.7
03 17.02 З 4 10 км 10/0
[As op]
+3.4 +1.5 87 -1 -1 1022.7 1020.7 +3.0
06 17.02 З 4 4000 м дымка 10/0
[As op]
+4.7 +1.8 81 +1 +1 1022.9 1020.9
09 17.02 ЮЗ 2 10 км 10/10 600 м
[Sc]
+8.2 +3.1 70 +6 +6 1022.4 1020.4
12 17.02 ЮЗ 4 20 км 8/0
[Ac trans Cc]
+9.2 +3.6 68 +6 +8 1020.0 1018.0
15 17.02 ЮЗ 4 4000 м дымка 3/1 600 м
[Sc Ac lent Cc]
+8.1 +5.9 86 +5 +5 1018.4 1016.4 +9.7
18 17.02 ЮЗ 3 4000 м дымка 4/0
[Ac lent Ci sp]
+7.9 +6.7 92 +5 +5 1017.9 1015.9
21 17.02 ЮЗ 2 10 км ясно +6.9 +2.8 75 +5 +5 1017.2 1015.2
00 18.02 З 3 10 км 10/0
[As op]
+6.0 +3.2 82 +3 +3 1016.4 1014.4
03 18.02 З 2 10 км 10/10 600 м
[Sc]
+4.9 +2.5 84 +2 +2 1016.3 1014.3 +4.9
06 18.02 СЗ 2 20 км ясно +4.3 +1.6 83 +2 +3 1017.9 1015.9 +4.3
09 18.02 С 1 20 км ясно +5.4 +1.0 73 +4 +12 1018.5 1016.5
12 18.02 С 1 20 км 3/0
[Cs]
+5.0 +1.0 75 +4 +8 1019.5 1017.0
15 18.02 СЗ 3 10 км 3/0
[Cs]
+4.1 -0.5 72 +1 +1 1019.6 1017.6 +5.5
18 18.02 СЗ 2 10 км 1/0
[Ci fib]
+3.5 -1.1 72 +1 +1 1021.2 1019.2
21 18.02 СВ 1 10 км ясно +2.9 -1.8 71 +2 +2 1022.7 1020.7
00 19.02 СВ 1 10 км 3/0
[Ci fib]
+1.5 -2.9 73 0 0 1023.9 1021.9

 

Местоположение метеостанции Тамань (Краснодарский край, Россия): широта 45.22 долгота 36.72 высота над уровнем моря 17 м.

В архиве по умолчанию представлена погода в Тамани за последнюю неделю. Архивные данные за месяц целиком и за предыдущие месяцы, начиная с января 2011 года, Вы можете получить, выбрав интересующий диапазон дат из раскрывающегося списка и нажав кнопку "Ввод!".


*Определитесь, кто Вы:
робот инопланетянин человек

Внимание! Время в таблицах - всемирное. Для получения местного времени необходимо прибавить поправку, которая равна 3 ч.

Смотрите также архив погоды в соседних городах и на ближайших метеорологических станциях:

Погода в Опасном (Крым, Россия) (18 км)
Погода в Керчи (Крым, Россия) (28 км)
Погода в Темрюке (Краснодарский край, Россия) (53 км)
Погода в Анапе (Краснодарский край, Россия) (58 км)
Погода в Мысовом (Крым, Россия) (75 км)
Погода в Новороссийске (Краснодарский край, Россия) (105 км)
Погода в Владиславовке (Крым, Россия) (105 км)
Погода в Крымске (Краснодарский край, Россия) (106 км)
Погода в Феодосии (Крым, Россия) (107 км)
Погода в Славянске-на-Кубани (Краснодарский край, Россия) (110 км)

Пояснения к столбцам:

Ветер - указаны скорость ветра в м/с - средняя за 10 мин, порывы в срок и между сроками (в фигурных скобках) и направление, откуда дует ветер: С - северный, СВ - северо-восточный, В - восточный, ЮВ - юго-восточный, Ю - южный, ЮЗ - юго-западный, З - западный, СЗ - северо-западный.
Видимость - горизонтальная дальность видимости в метрах или километрах. При видимости от 1 до 10 км при отсутствии осадков обычно наблюдается дымка, при ухудшении видимости до 1 км и менее - туман. В сухую погоду видимость может ухудшаться дымом, пылью или мглою.
Явления - указаны атмосферные явления, наблюдавшиеся в срок или в последний час перед сроком; фигурными скобками обозначены явления, наблюдавшиеся между сроками (за 1-3 часа до срока); квадратными скобками обозначены град или гололедные отложения с указанием их диаметра в мм.
Облачность - указаны через наклонную черту общая и нижняя облачность в баллах и высота нижней границы облаков в метрах; квадратными скобками обозначены формы облаков: Ci - перистые, Cs - перисто-слоистые, Cc - перисто-кучевые, Ac - высококучевые, As - высокослоистые, Sc - слоисто-кучевые, Ns - слоисто-дождевые, Cu - кучевые, Cb - кучево-дождевые. Подробнее классификацию облаков см. в Атласе облаков (PDF).
T - Температура воздуха - температура, измеренная на высоте 2 м над землей.
Td - Температура точки росы - температура, при понижении до которой содержащийся в воздухе водяной пар достигнет насыщения.
f - Относительная влажность воздуха - влажноcть воздуха, измеренная на высоте 2 м над землей.
Te - Эффективная температура - температура, которую ощущает одетый по сезону человек в тени. Характеристика душности погоды. При расчете учитывается влияние влажности воздуха и скорости ветра на теплоощущения человека.
Tes - Эффективная температура на солнце - температура, которую ощущает человек, с поправкой на солнечный нагрев. Характеристика знойности погоды. Зависит от высоты солнца над горизонтом, облачности и скорости ветра. Ночью, в пасмурную погоду, а также при ветре 12 м/с и более поправка равна нулю.
P - Атмосферное давление - приведенное к уровню моря атмосферное давление.
Po - Атмосферное давление - измеренное на уровне метеостанции атмосферное давление.
Tmin - Минимальная температура - минимум температуры воздуха на высоте 2 м над землей.
Tmax - Максимальная температура - максимум температуры воздуха на высоте 2 м над землей.
R - Количество осадков - Количество выпавших осадков за период времени, мм. При наведении курсора мыши на число - период времени, за который выпало указанное количество осадков.
R24 - Количество осадков - Количество выпавших осадков за 24 часа, мм.
S - Снежный покров - Высота снежного покрова, см. При наведении курсора мыши на число - состояние снежного покрова и степень покрытия местности в баллах.